| time (UTC) | temp F | wind direction | speed knots | gust knots | rain 1hr in | rain 24hr in | rain mn in | humidity % | barometer mb |
| 20260504050535 | 56 | 240 | 2.6 | 8.7 | 0.00 | 0.07 | 0.00 | 69 | 1006.2 |
| 20260504045533 | 56 | 232 | 2.6 | 7.0 | 0.00 | 0.07 | 0.07 | 69 | 1006.2 |
| 20260504045034 | 56 | 210 | 2.6 | 7.0 | 0.00 | 0.07 | 0.07 | 69 | 1006.1 |
| 20260504044559 | 56 | 238 | 3.5 | 7.0 | 0.00 | 0.07 | 0.07 | 69 | 1006.2 |
| 20260504044033 | 56 | 230 | 1.7 | 7.0 | 0.00 | 0.07 | 0.07 | 69 | 1006.2 |
| 20260504043534 | 56 | 229 | 2.6 | 6.1 | 0.00 | 0.07 | 0.07 | 69 | 1006.1 |
| 20260504043053 | 56 | 229 | 2.6 | 6.1 | 0.00 | 0.07 | 0.07 | 69 | 1006.2 |
| 20260504042534 | 56 | 232 | 1.7 | 5.2 | 0.00 | 0.07 | 0.07 | 68 | 1006.1 |
| 20260504042034 | 56 | 245 | 1.7 | 5.2 | 0.00 | 0.07 | 0.07 | 69 | 1006.1 |
| 20260504041544 | 56 | 173 | 1.7 | 5.2 | 0.00 | 0.07 | 0.07 | 69 | 1006.0 |
| 20260504041037 | 56 | 220 | 2.6 | 5.2 | 0.00 | 0.07 | 0.07 | 69 | 1006.1 |
| 20260504040535 | 56 | 180 | 1.7 | 4.3 | 0.00 | 0.07 | 0.07 | 69 | 1006.1 |
| 20260504040106 | 56 | 176 | 1.7 | 4.3 | 0.00 | 0.07 | 0.07 | 69 | 1006.1 |
| 20260504035534 | 56 | 189 | 0.9 | 4.3 | 0.00 | 0.07 | 0.07 | 69 | 1006.2 |
| 20260504035034 | 56 | 149 | 0.9 | 3.5 | 0.00 | 0.07 | 0.07 | 69 | 1006.3 |
| 20260504034610 | 56 | 182 | 0.9 | 3.5 | 0.00 | 0.07 | 0.07 | 69 | 1006.3 |
| 20260504034033 | 56 | 167 | 0.9 | 3.5 | 0.00 | 0.07 | 0.07 | 69 | 1006.4 |
| 20260504033533 | 56 | 178 | 0.0 | 1.7 | 0.00 | 0.07 | 0.07 | 68 | 1006.5 |
| 20260504033048 | 56 | 257 | 0.0 | 1.7 | 0.00 | 0.07 | 0.07 | 68 | 1006.5 |
| 20260504032534 | 57 | 0 | 0.0 | 2.6 | 0.00 | 0.07 | 0.07 | 67 | 1006.5 |
| 20260504032036 | 57 | 0 | 0.9 | 2.6 | 0.00 | 0.07 | 0.07 | 67 | 1006.6 |
| 20260504031547 | 57 | 203 | 0.9 | 2.6 | 0.00 | 0.07 | 0.07 | 67 | 1006.6 |
| 20260504031034 | 57 | 192 | 0.9 | 3.5 | 0.00 | 0.07 | 0.07 | 66 | 1006.7 |
| 20260504030534 | 57 | 239 | 0.9 | 3.5 | 0.00 | 0.07 | 0.07 | 66 | 1006.7 |
| 20260504025534 | 58 | 185 | 1.7 | 3.5 | 0.00 | 0.07 | 0.07 | 65 | 1006.7 |
| 20260504025032 | 58 | 213 | 0.9 | 3.5 | 0.00 | 0.07 | 0.07 | 65 | 1006.7 |
| 20260504024559 | 58 | 206 | 0.9 | 3.5 | 0.00 | 0.07 | 0.07 | 65 | 1006.7 |
| 20260504024034 | 58 | 205 | 0.9 | 3.5 | 0.00 | 0.07 | 0.07 | 64 | 1006.7 |
| 20260504023535 | 58 | 245 | 0.0 | 3.5 | 0.00 | 0.07 | 0.07 | 64 | 1006.7 |
| 20260504023050 | 59 | 237 | 0.0 | 3.5 | 0.00 | 0.07 | 0.07 | 63 | 1006.6 |
| 20260504022534 | 59 | 227 | 0.0 | 4.3 | 0.00 | 0.07 | 0.07 | 63 | 1006.6 |
| 20260504022038 | 59 | 235 | 0.9 | 4.3 | 0.00 | 0.07 | 0.07 | 62 | 1006.6 |
| 20260504021551 | 59 | 204 | 1.7 | 5.2 | 0.00 | 0.07 | 0.07 | 62 | 1006.6 |
| 20260504021034 | 59 | 234 | 1.7 | 6.1 | 0.00 | 0.07 | 0.07 | 62 | 1006.6 |
| 20260504020533 | 59 | 227 | 1.7 | 6.1 | 0.00 | 0.07 | 0.07 | 62 | 1006.5 |
| 20260504020047 | 60 | 242 | 1.7 | 6.1 | 0.00 | 0.07 | 0.07 | 61 | 1006.4 |
| 20260504015531 | 60 | 210 | 1.7 | 5.2 | 0.00 | 0.07 | 0.07 | 61 | 1006.4 |
| 20260504015033 | 60 | 232 | 1.7 | 4.3 | 0.00 | 0.07 | 0.07 | 60 | 1006.2 |
| 20260504014548 | 60 | 242 | 1.7 | 7.0 | 0.00 | 0.07 | 0.07 | 60 | 1006.3 |
| 20260504014034 | 61 | 194 | 2.6 | 7.0 | 0.00 | 0.07 | 0.07 | 60 | 1006.2 |
| 20260504013532 | 61 | 251 | 2.6 | 7.0 | 0.00 | 0.07 | 0.07 | 59 | 1006.2 |
| 20260504013051 | 61 | 208 | 3.5 | 7.8 | 0.00 | 0.07 | 0.07 | 59 | 1006.2 |
| 20260504012535 | 61 | 205 | 2.6 | 7.8 | 0.00 | 0.07 | 0.07 | 59 | 1006.1 |
| 20260504012035 | 61 | 205 | 3.5 | 7.0 | 0.00 | 0.07 | 0.07 | 58 | 1006.2 |
| 20260504011548 | 62 | 240 | 2.6 | 7.0 | 0.00 | 0.07 | 0.07 | 58 | 1006.2 |
| 20260504011034 | 62 | 201 | 1.7 | 6.1 | 0.00 | 0.07 | 0.07 | 57 | 1006.2 |
| 20260504010532 | 62 | 205 | 2.6 | 8.7 | 0.00 | 0.07 | 0.07 | 57 | 1006.2 |
| 20260504010048 | 63 | 232 | 2.6 | 8.7 | 0.00 | 0.07 | 0.07 | 56 | 1006.2 |
| 20260504005535 | 63 | 188 | 2.6 | 7.8 | 0.00 | 0.07 | 0.07 | 55 | 1006.2 |
| 20260504005032 | 63 | 255 | 3.5 | 7.8 | 0.00 | 0.07 | 0.07 | 55 | 1006.1 |
| 20260504004548 | 64 | 230 | 2.6 | 7.8 | 0.00 | 0.07 | 0.07 | 54 | 1006.1 |
| 20260504004035 | 64 | 234 | 3.5 | 7.8 | 0.00 | 0.07 | 0.07 | 54 | 1006.1 |
| 20260504003532 | 64 | 252 | 4.3 | 11.3 | 0.00 | 0.07 | 0.07 | 53 | 1006.1 |
| 20260504003051 | 65 | 223 | 5.2 | 11.3 | 0.00 | 0.07 | 0.07 | 52 | 1006.1 |
| 20260504002534 | 65 | 211 | 5.2 | 9.6 | 0.00 | 0.07 | 0.07 | 52 | 1006.1 |
| 20260504002035 | 65 | 242 | 4.3 | 11.3 | 0.00 | 0.07 | 0.07 | 52 | 1006.2 |
| 20260504001603 | 65 | 226 | 5.2 | 11.3 | 0.00 | 0.07 | 0.07 | 52 | 1006.2 |
| 20260504001034 | 66 | 220 | 5.2 | 11.3 | 0.00 | 0.07 | 0.07 | 52 | 1006.2 |
| 20260504000535 | 66 | 200 | 6.1 | 13.0 | 0.00 | 0.07 | 0.07 | 51 | 1006.1 |
| 20260504000052 | 66 | 210 | 7.0 | 13.0 | 0.00 | 0.07 | 0.07 | 50 | 1006.2 |
| 20260503235535 | 66 | 236 | 6.1 | 14.8 | 0.00 | 0.07 | 0.07 | 50 | 1006.2 |
| 20260503235034 | 66 | 248 | 5.2 | 14.8 | 0.00 | 0.07 | 0.07 | 50 | 1006.2 |
| 20260503234549 | 67 | 264 | 6.1 | 14.8 | 0.00 | 0.07 | 0.07 | 49 | 1006.3 |
| 20260503234035 | 67 | 230 | 6.1 | 14.8 | 0.00 | 0.07 | 0.07 | 49 | 1006.3 |
| 20260503233532 | 67 | 188 | 5.2 | 12.2 | 0.00 | 0.07 | 0.07 | 49 | 1006.2 |
| 20260503233048 | 67 | 248 | 6.1 | 15.6 | 0.00 | 0.07 | 0.07 | 48 | 1006.2 |
| 20260503232537 | 67 | 236 | 7.0 | 18.2 | 0.00 | 0.07 | 0.07 | 48 | 1006.2 |
| 20260503232035 | 67 | 232 | 8.7 | 18.2 | 0.00 | 0.07 | 0.07 | 48 | 1006.2 |
| 20260503231552 | 67 | 246 | 6.1 | 17.4 | 0.00 | 0.07 | 0.07 | 48 | 1006.3 |
| 20260503231033 | 67 | 255 | 6.1 | 13.9 | 0.00 | 0.07 | 0.07 | 48 | 1006.2 |
| 20260503230534 | 67 | 222 | 7.0 | 13.9 | 0.00 | 0.07 | 0.07 | 47 | 1006.2 |
| 20260503230049 | 67 | 232 | 7.0 | 17.4 | 0.00 | 0.07 | 0.07 | 47 | 1006.4 |
| 20260503225532 | 67 | 236 | 8.7 | 17.4 | 0.00 | 0.07 | 0.07 | 46 | 1006.4 |
| 20260503225032 | 68 | 263 | 7.0 | 17.4 | 0.00 | 0.07 | 0.07 | 46 | 1006.5 |
| 20260503224547 | 68 | 223 | 7.0 | 16.5 | 0.00 | 0.07 | 0.07 | 46 | 1006.4 |
| 20260503224033 | 68 | 263 | 7.0 | 16.5 | 0.00 | 0.07 | 0.07 | 46 | 1006.5 |
| 20260503223533 | 68 | 282 | 8.7 | 15.6 | 0.00 | 0.07 | 0.07 | 46 | 1006.6 |
| 20260503223045 | 68 | 232 | 7.0 | 15.6 | 0.00 | 0.07 | 0.07 | 46 | 1006.7 |
| 20260503222532 | 68 | 205 | 8.7 | 15.6 | 0.00 | 0.07 | 0.07 | 46 | 1006.5 |
| 20260503222039 | 68 | 222 | 7.0 | 15.6 | 0.00 | 0.07 | 0.07 | 47 | 1006.5 |
| 20260503221545 | 67 | 255 | 8.7 | 15.6 | 0.00 | 0.07 | 0.07 | 47 | 1006.7 |
| 20260503221035 | 66 | 236 | 7.8 | 16.5 | 0.00 | 0.07 | 0.07 | 47 | 1006.7 |
| 20260503220532 | 66 | 239 | 8.7 | 16.5 | 0.00 | 0.07 | 0.07 | 46 | 1006.8 |
| 20260503220042 | 67 | 240 | 7.0 | 13.9 | 0.00 | 0.07 | 0.07 | 45 | 1006.7 |
| 20260503215534 | 67 | 200 | 7.0 | 13.9 | 0.00 | 0.07 | 0.07 | 45 | 1006.8 |
| 20260503215034 | 67 | 214 | 8.7 | 14.8 | 0.00 | 0.07 | 0.07 | 45 | 1006.8 |
| 20260503214559 | 66 | 229 | 7.0 | 15.6 | 0.00 | 0.07 | 0.07 | 46 | 1006.8 |
| 20260503214032 | 66 | 228 | 7.0 | 15.6 | 0.00 | 0.07 | 0.07 | 46 | 1007.0 |
| 20260503213533 | 66 | 223 | 8.7 | 13.9 | 0.00 | 0.07 | 0.07 | 45 | 1007.0 |
| 20260503213048 | 66 | 242 | 4.3 | 15.6 | 0.00 | 0.07 | 0.07 | 47 | 1007.1 |
| 20260503212535 | 65 | 218 | 6.1 | 17.4 | 0.00 | 0.07 | 0.07 | 46 | 1007.2 |
| 20260503212033 | 65 | 228 | 7.8 | 17.4 | 0.00 | 0.07 | 0.07 | 45 | 1007.1 |
| 20260503211553 | 65 | 200 | 9.6 | 17.4 | 0.00 | 0.07 | 0.07 | 47 | 1007.2 |
| 20260503211031 | 65 | 201 | 6.1 | 19.1 | 0.00 | 0.07 | 0.07 | 48 | 1007.3 |
| 20260503210533 | 65 | 192 | 8.7 | 19.1 | 0.00 | 0.07 | 0.07 | 46 | 1007.4 |
| 20260503210044 | 65 | 170 | 7.0 | 16.5 | 0.00 | 0.07 | 0.07 | 46 | 1007.6 |
| 20260503205534 | 65 | 172 | 8.7 | 16.5 | 0.00 | 0.07 | 0.07 | 46 | 1007.6 |
| 20260503205031 | 64 | 220 | 6.1 | 14.8 | 0.00 | 0.07 | 0.07 | 48 | 1007.7 |
| 20260503204553 | 64 | 176 | 7.8 | 18.2 | 0.00 | 0.07 | 0.07 | 46 | 1007.9 |
| 20260503204034 | 65 | 229 | 7.8 | 18.2 | 0.00 | 0.07 | 0.07 | 46 | 1008.1 |
| 20260503203534 | 65 | 228 | 7.8 | 17.4 | 0.00 | 0.07 | 0.07 | 47 | 1008.1 |
| 20260503203050 | 64 | 233 | 7.8 | 17.4 | 0.00 | 0.07 | 0.07 | 46 | 1008.3 |
| 20260503202535 | 64 | 242 | 7.0 | 22.6 | 0.00 | 0.07 | 0.07 | 46 | 1008.4 |
| 20260503202035 | 64 | 239 | 9.6 | 22.6 | 0.00 | 0.07 | 0.07 | 44 | 1008.4 |
| 20260503201550 | 64 | 243 | 9.6 | 20.9 | 0.00 | 0.07 | 0.07 | 44 | 1008.3 |
| 20260503201034 | 64 | 249 | 7.8 | 20.9 | 0.00 | 0.07 | 0.07 | 46 | 1008.6 |
| 20260503200534 | 64 | 250 | 7.8 | 18.2 | 0.00 | 0.07 | 0.07 | 46 | 1008.7 |
| 20260503200049 | 63 | 204 | 8.7 | 19.1 | 0.00 | 0.07 | 0.07 | 46 | 1008.6 |
| 20260503195535 | 63 | 248 | 8.7 | 21.7 | 0.00 | 0.07 | 0.07 | 45 | 1008.8 |
| 20260503195034 | 64 | 171 | 9.6 | 21.7 | 0.00 | 0.07 | 0.07 | 44 | 1008.9 |
| 20260503194548 | 65 | 175 | 10.4 | 20.9 | 0.00 | 0.07 | 0.07 | 44 | 1008.9 |
| 20260503194031 | 65 | 230 | 11.3 | 19.1 | 0.00 | 0.07 | 0.07 | 44 | 1008.9 |
| 20260503193535 | 65 | 234 | 7.8 | 22.6 | 0.00 | 0.07 | 0.07 | 47 | 1009.0 |
| 20260503193057 | 65 | 255 | 9.6 | 22.6 | 0.00 | 0.07 | 0.07 | 48 | 1009.0 |
| 20260503192531 | 64 | 183 | 13.0 | 20.0 | 0.00 | 0.07 | 0.07 | 48 | 1009.2 |
| 20260503192035 | 64 | 195 | 9.6 | 20.9 | 0.00 | 0.07 | 0.07 | 47 | 1009.1 |
| 20260503191545 | 63 | 234 | 10.4 | 20.9 | 0.00 | 0.07 | 0.07 | 50 | 1009.2 |
| 20260503191035 | 63 | 227 | 8.7 | 19.1 | 0.00 | 0.07 | 0.07 | 53 | 1009.3 |
| 20260503190535 | 62 | 160 | 9.6 | 19.1 | 0.00 | 0.07 | 0.07 | 52 | 1009.3 |
| 20260503190100 | 62 | 238 | 8.7 | 19.1 | 0.00 | 0.07 | 0.07 | 53 | 1009.4 |
| 20260503185531 | 61 | 227 | 11.3 | 18.2 | 0.00 | 0.07 | 0.07 | 56 | 1009.4 |
| 20260503185032 | 60 | 167 | 10.4 | 19.1 | 0.00 | 0.07 | 0.07 | 57 | 1009.5 |
| 20260503184551 | 60 | 155 | 10.4 | 23.5 | 0.00 | 0.07 | 0.07 | 57 | 1009.7 |
| 20260503184034 | 60 | 184 | 10.4 | 23.5 | 0.00 | 0.07 | 0.07 | 58 | 1009.8 |
| 20260503183534 | 60 | 164 | 7.8 | 19.1 | 0.00 | 0.07 | 0.07 | 61 | 1009.8 |
| 20260503183058 | 59 | 150 | 8.7 | 19.1 | 0.00 | 0.07 | 0.07 | 61 | 1009.9 |
| 20260503182531 | 58 | 148 | 9.6 | 18.2 | 0.00 | 0.07 | 0.07 | 64 | 1010.1 |
| 20260503182034 | 57 | 168 | 8.7 | 14.8 | 0.00 | 0.07 | 0.07 | 68 | 1010.2 |
| 20260503181548 | 56 | 182 | 6.1 | 14.8 | 0.00 | 0.07 | 0.07 | 69 | 1010.4 |
| 20260503181031 | 56 | 172 | 8.7 | 14.8 | 0.00 | 0.07 | 0.07 | 69 | 1010.6 |
| 20260503180531 | 56 | 143 | 7.8 | 14.8 | 0.00 | 0.07 | 0.07 | 71 | 1010.6 |
| 20260503180055 | 54 | 196 | 7.8 | 14.8 | 0.00 | 0.07 | 0.07 | 71 | 1010.9 |
| 20260503175535 | 53 | 163 | 7.0 | 14.8 | 0.00 | 0.07 | 0.07 | 73 | 1011.1 |
| 20260503175032 | 53 | 149 | 7.8 | 13.0 | 0.00 | 0.07 | 0.07 | 75 | 1011.2 |
| 20260503174544 | 52 | 165 | 7.8 | 12.2 | 0.00 | 0.07 | 0.07 | 77 | 1011.3 |
| 20260503174035 | 51 | 173 | 6.1 | 12.2 | 0.00 | 0.07 | 0.07 | 77 | 1011.5 |
| 20260503173537 | 50 | 167 | 6.1 | 12.2 | 0.00 | 0.07 | 0.07 | 77 | 1011.7 |
| 20260503173109 | 50 | 147 | 5.2 | 12.2 | 0.00 | 0.07 | 0.07 | 76 | 1011.8 |
| 20260503172535 | 50 | 161 | 5.2 | 12.2 | 0.01 | 0.07 | 0.07 | 75 | 1012.0 |
| 20260503172034 | 50 | 149 | 5.2 | 8.7 | 0.01 | 0.07 | 0.07 | 75 | 1012.4 |
| 20260503171553 | 50 | 150 | 5.2 | 8.7 | 0.01 | 0.07 | 0.07 | 76 | 1012.8 |
| 20260503171036 | 50 | 144 | 4.3 | 8.7 | 0.01 | 0.07 | 0.07 | 78 | 1012.8 |
| 20260503170535 | 50 | 157 | 4.3 | 7.8 | 0.01 | 0.07 | 0.07 | 78 | 1012.9 |
| 20260503150531 | 52 | 281 | 6.1 | 13.9 | 0.00 | 0.00 | 0.00 | 66 | 1014.9 |
| 20260503131034 | 49 | 196 | 3.5 | 8.7 | 0.00 | 0.00 | 0.00 | 66 | 1014.6 |
| 20260503130537 | 49 | 223 | 3.5 | 10.4 | 0.00 | 0.00 | 0.00 | 66 | 1014.9 |
| 20260503110534 | 44 | 266 | 1.7 | 5.2 | 0.00 | 0.00 | 0.00 | 70 | 1014.5 |
| 20260503081554 | 42 | 221 | 0.9 | 4.3 | 0.00 | 0.00 | 0.00 | 69 | 1015.3 |
| 20260503081034 | 42 | 226 | 1.7 | 4.3 | 0.00 | 0.00 | 0.00 | 68 | 1015.4 |
| 20260503080538 | 42 | 240 | 1.7 | 4.3 | 0.00 | 0.00 | 0.00 | 68 | 1015.3 |
| 20260503080201 | 42 | 236 | 1.7 | 3.5 | 0.00 | 0.00 | 0.00 | 68 | 1015.3 |
| 20260503072534 | 43 | 249 | 0.9 | 2.6 | 0.00 | 0.00 | 0.00 | 67 | 1015.3 |
| 20260503072034 | 43 | 238 | 0.9 | 2.6 | 0.00 | 0.00 | 0.00 | 67 | 1015.3 |
| 20260503071557 | 43 | 201 | 0.9 | 3.5 | 0.00 | 0.00 | 0.00 | 67 | 1015.4 |
| 20260503071035 | 43 | 185 | 0.9 | 3.5 | 0.00 | 0.00 | 0.00 | 67 | 1015.4 |
| 20260503070534 | 43 | 180 | 0.9 | 3.5 | 0.00 | 0.00 | 0.00 | 67 | 1015.4 |